Wind_Speed
4 8 12 14 15 15 15 15 13 11 11 11 10 9 9 7 5 4 3 6 8 8 9 10 12 12 11 10 9 12 12 13 12 9 9 11 11 11 12 14 13 12 11
2 9 13 15 14 14 15 15 13 11 10 10 9 9 9 9 7 5 4 6 8 8 9 10 11 12 11 10 10 11 11 10 8 7 7 8 9 9 8 6 8 9 11
2 9 14 17 16 15 14 14 14 13 12 11 9 10 9 9 9 7 6 8 10 10 11 11 12 12 11 11 10 11 9 8 7 6 5 6 7 7 6 6 6 6 6
5 8 12 17 17 17 15 14 14 13 12 11 10 9 10 10 11 9 8 9 13 12 11 11 12 12 10 11 10 10 9 8 7 6 6 6 6 7 6 6 5 5 4
3 7 11 16 18 18 17 16 14 14 12 11 10 9 9 10 9 9 10 11 14 14 11 6 10 9 12 11 10 9 9 7 7 7 7 7 6 6 6 5 5 5 4
3 6 11 15 16 16 16 15 15 14 13 13 11 9 7 10 7 10 11 12 15 15 11 7 9 10 12 11 11 9 8 7 7 7 7 7 6 5 5 5 5 4 4
5 8 10 13 15 15 15 15 15 14 14 13 12 11 11 12 10 9 12 13 15 15 12 9 10 11 13 12 10 9 8 8 8 7 6 6 5 4 4 4 4 4 4
6 7 10 12 13 15 15 15 15 15 15 15 14 13 13 13 13 12 13 16 15 15 14 11 10 12 13 12 10 9 8 7 7 7 7 6 5 4 4 4 3 4 3
8 10 10 11 13 14 17 18 19 18 17 14 14 15 15 15 14 14 13 14 16 15 15 13 12 13 15 13 11 10 9 8 8 7 6 5 5 5 4 3 4 3 3
8 12 13 14 14 14 17 18 18 17 16 16 16 17 16 16 17 15 16 16 17 17 17 15 14 16 17 15 12 11 10 10 8 9 7 7 6 6 5 4 4 3 3
7 10 15 17 16 15 15 16 16 17 17 16 16 15 15 17 16 18 18 18 16 18 19 17 15 17 18 17 15 13 13 12 9 9 8 9 8 7 6 5 5 4 4
10 8 13 18 20 20 19 18 18 17 17 17 15 15 15 14 15 16 17 18 18 18 20 16 16 17 18 16 17 18 17 12 12 11 10 10 9 8 7 6 6 5 6
18 13 11 15 20 22 22 20 18 16 14 17 15 15 13 11 12 16 15 19 21 20 20 20 19 20 20 18 17 16 15 15 13 13 13 13 11 10 10 8 7 7 7
24 19 16 15 18 23 23 22 21 19 18 18 17 16 14 13 11 10 12 16 19 20 24 22 19 19 21 21 20 19 17 16 15 14 14 15 14 13 12 11 9 9 8
28 26 20 19 18 20 23 23 22 21 18 19 21 18 18 16 13 14 16 15 17 21 23 27 26 21 23 23 23 24 23 20 18 16 15 18 17 15 14 14 11 8 9
27 29 25 22 19 21 22 24 24 23 18 19 22 22 21 21 19 19 21 22 23 20 22 25 27 24 28 25 25 23 25 26 22 21 18 17 20 18 17 18 18 16 12
25 28 29 25 22 23 22 24 26 26 24 23 23 26 26 28 28 27 27 28 30 30 26 27 28 29 34 33 35 31 31 31 28 24 25 23 21 22 21 20 19 19 18
27 28 27 27 26 24 25 25 26 26 26 26 26 28 28 30 30 28 27 27 27 28 33 34 34 36 38 38 37 33 32 31 26 24 21 24 24 25 25 24 23 20 19
24 24 27 28 28 24 24 25 28 27 27 27 29 30 31 28 28 27 26 26 25 30 34 36 36 40 40 42 42 38 43 39 33 25 22 22 26 27 27 28 26 25 22
25 28 29 28 27 25 25 25 27 27 26 27 27 28 28 28 29 29 27 29 25 24 27 32 36 36 39 42 44 45 46 44 44 39 34 26 24 26 30 29 30 30 28
21 27 27 27 25 23 24 25 24 24 23 24 25 27 28 31 32 32 31 32 31 28 27 28 31 37 39 40 36 39 46 47 45 40 37 36 33 30 33 34 34 35 32
12 11 15 18 20 19 21 21 19 18 19 21 23 26 28 30 32 31 31 32 31 31 30 32 37 39 40 40 41 32 31 40 48 44 42 38 35 33 40 38 37 38 36
8 3 3 10 15 19 18 18 17 19 22 25 25 27 30 31 32 32 33 34 34 33 35 36 35 39 42 44 41 35 14 21 36 39 49 41 32 45 41 39 38 38 38
9 2 2 4 13 16 21 15 15 17 16 17 23 24 26 28 30 33 34 36 36 35 36 36 37 41 47 46 43 47 39 25 22 23 30 32 35 34 41 44 42 39 41
8 9 7 2 5 12 7 11 13 15 16 15 17 16 10 12 20 23 28 31 34 35 34 34 29 43 46 44 46 38 49 37 25 19 22 26 25 25 38 43 47 44 41
7 6 8 6 6 5 5 8 10 9 12 16 14 10 10 10 13 16 27 28 30 33 33 33 34 32 41 47 44 40 38 46 41 29 27 24 26 31 29 28 30 36 36
Wind_Direction
256 198 198 191 184 181 180 182 189 179 176 176 181 193 189 190 186 175 159 152 149 141 137 137 131 134 133 128 127 133 130 128 133 135 110 124 130 127 125 115 98 105 106
254 196 203 197 192 184 183 187 192 190 191 198 203 198 205 201 211 213 198 176 162 160 158 156 158 154 165 161 157 152 144 145 144 129 127 126 132 140 139 145 142 129 129
335 198 205 201 201 198 193 192 195 200 204 209 212 207 215 218 220 224 211 185 167 170 172 171 171 176 188 170 163 167 164 164 157 144 129 113 130 137 146 151 154 157 153
269 219 199 207 204 210 208 203 204 205 213 214 213 213 211 222 221 216 208 196 180 189 201 218 199 204 182 173 171 170 176 172 162 148 118 121 127 136 142 146 151 157 163
262 224 208 211 207 211 212 209 207 211 214 215 220 225 217 213 212 213 203 197 187 201 205 233 193 184 177 178 177 177 177 174 162 147 142 134 126 139 136 137 139 144 148
220 216 216 209 210 212 211 212 213 217 217 218 220 226 212 214 230 210 211 195 198 206 213 229 211 195 185 181 177 180 182 178 170 158 151 147 143 140 137 138 143 142 140
230 188 212 212 215 220 216 216 220 222 224 224 223 221 222 221 227 228 220 210 213 215 218 222 212 205 194 187 189 193 192 186 173 168 159 152 166 151 144 148 147 143 141
243 210 206 216 221 224 223 221 220 223 225 228 229 230 232 231 232 230 228 222 219 224 225 229 218 212 203 199 206 204 201 197 185 181 176 162 191 170 159 155 153 147 139
256 235 219 218 225 227 227 225 227 229 231 236 242 241 238 237 236 232 231 225 226 226 228 236 234 221 214 211 212 213 210 199 188 195 190 186 197 186 181 175 166 160 149
265 243 233 226 223 232 239 236 238 241 243 246 247 249 247 244 239 236 231 233 229 228 232 239 246 230 219 217 216 215 213 207 203 212 205 205 212 201 198 193 192 179 167
300 258 237 234 231 229 234 242 246 250 253 251 253 254 249 245 240 238 235 233 238 232 233 238 250 231 224 222 220 220 219 220 221 218 217 226 220 212 213 213 208 195 184
295 277 253 238 231 233 232 238 239 247 252 257 249 249 249 253 234 232 233 233 238 236 238 245 240 234 231 227 229 224 224 222 224 230 227 228 226 221 225 229 218 211 209
283 282 274 252 240 234 233 236 237 244 247 257 249 246 241 246 242 246 234 235 230 232 233 239 238 233 232 221 222 228 224 225 226 229 233 233 231 229 233 241 231 228 224
271 271 270 262 252 239 233 230 232 233 232 240 239 237 228 206 216 233 229 232 230 228 226 224 225 231 227 228 225 224 228 230 230 232 236 237 238 234 223 237 233 236 238
272 264 264 265 253 243 234 228 227 226 228 234 234 226 216 223 228 232 234 232 242 231 233 238 234 229 228 228 228 228 232 232 234 238 239 241 239 239 233 230 229 237 240
274 265 260 260 253 243 231 226 226 227 225 232 235 227 229 233 236 260 260 252 243 239 236 236 238 233 230 227 230 234 234 236 236 237 240 243 240 239 237 241 237 233 227
274 266 255 252 250 237 231 230 231 231 231 235 237 235 241 242 252 270 268 262 258 248 241 236 238 237 241 240 239 240 246 244 242 241 241 241 243 241 240 239 240 241 239
274 268 255 244 245 239 232 233 238 240 240 240 243 244 243 252 255 259 259 260 260 250 249 248 246 247 245 243 241 237 245 244 242 242 243 243 243 242 242 240 236 241 242
273 267 259 243 238 240 234 235 238 241 244 247 249 251 252 255 258 262 263 262 259 259 252 250 250 251 252 247 241 236 235 242 243 240 240 246 246 244 246 244 238 241 243
271 268 266 250 235 237 239 241 239 240 244 247 250 250 251 256 262 265 265 264 260 254 256 252 248 247 248 251 248 246 232 232 244 241 245 244 249 250 249 247 245 241 242
291 271 261 251 235 237 241 238 233 236 240 248 253 257 258 262 262 263 265 266 264 253 249 248 247 252 248 246 244 250 237 236 242 242 238 242 248 252 257 249 247 248 243
327 287 257 245 234 234 237 224 226 236 247 256 262 265 265 265 264 263 263 265 265 259 250 248 254 254 249 240 233 237 234 237 243 239 238 236 242 253 256 252 250 248 247
337 310 254 217 216 212 214 220 232 247 254 259 264 270 272 274 272 270 266 264 264 259 258 251 257 255 248 240 228 227 219 229 234 239 237 238 230 252 255 254 249 250 247
344 328 134 160 201 213 225 237 251 264 267 272 278 283 287 281 273 268 263 262 260 254 256 257 262 259 251 232 232 232 226 234 214 219 231 232 243 255 259 254 249 247 248
349 17 50 52 239 238 272 269 270 277 282 271 264 268 279 297 279 268 263 259 257 250 253 258 262 241 238 235 232 234 228 219 212 211 222 222 235 255 261 256 253 247 245
10 4 15 31 19 6 334 311 293 266 241 229 237 251 278 324 326 287 267 259 260 252 252 261 260 248 241 234 230 224 224 216 225 239 245 247 232 248 261 263 263 257 257
Height
1524 1524 1524 1524 1525 1527 1528 1529 1531 1532 1533 1534 1535 1536 1537 1537 1537 1537 1538 1538 1538 1539 1539 1539 1539 1540 1540 1540 1540 1540 1540 1541 1541 1540 1540 1540 1539 1539 1539 1539 1540 1540 1539
1522 1524 1524 1525 1526 1528 1529 1530 1531 1533 1534 1535 1535 1536 1537 1537 1538 1538 1539 1539 1539 1540 1540 1541 1541 1541 1541 1541 1541 1541 1542 1542 1542 1542 1542 1542 1541 1541 1541 1541 1540 1540 1540
1524 1524 1523 1525 1526 1528 1529 1531 1531 1532 1534 1535 1535 1536 1537 1537 1537 1538 1539 1539 1540 1541 1541 1542 1543 1542 1542 1541 1542 1543 1543 1543 1543 1544 1544 1544 1542 1542 1542 1541 1541 1540 1540
1522 1524 1524 1524 1526 1527 1529 1530 1532 1532 1533 1534 1535 1536 1537 1538 1537 1538 1539 1539 1541 1541 1542 1542 1542 1542 1543 1543 1543 1543 1544 1544 1544 1544 1546 1546 1544 1543 1543 1542 1541 1541 1541
1521 1523 1524 1524 1524 1526 1527 1529 1530 1532 1533 1534 1534 1535 1536 1537 1537 1538 1539 1539 1540 1541 1542 1542 1543 1542 1543 1544 1545 1545 1545 1545 1545 1545 1545 1546 1546 1544 1543 1543 1542 1542 1541
1520 1522 1523 1524 1525 1526 1527 1529 1530 1531 1532 1533 1534 1535 1536 1536 1537 1538 1539 1539 1540 1541 1542 1542 1543 1544 1544 1544 1545 1546 1546 1546 1546 1546 1546 1546 1546 1545 1544 1543 1543 1542 1542
1519 1520 1523 1524 1525 1526 1528 1529 1530 1531 1532 1533 1533 1534 1535 1536 1536 1537 1538 1539 1540 1541 1541 1542 1543 1544 1545 1545 1545 1546 1546 1546 1546 1546 1547 1546 1546 1545 1544 1544 1543 1543 1542
1518 1519 1521 1523 1525 1526 1527 1528 1529 1530 1531 1532 1533 1533 1534 1535 1535 1536 1537 1538 1539 1540 1541 1542 1543 1544 1544 1545 1545 1546 1546 1546 1546 1546 1546 1547 1545 1545 1544 1544 1544 1543 1542
1518 1519 1519 1521 1522 1524 1525 1526 1527 1528 1529 1531 1532 1533 1533 1534 1534 1535 1535 1536 1538 1539 1540 1541 1542 1543 1544 1545 1545 1546 1546 1546 1547 1547 1546 1546 1545 1545 1545 1544 1544 1544 1543
1517 1517 1518 1518 1520 1521 1522 1524 1526 1527 1528 1530 1530 1530 1531 1532 1532 1533 1534 1534 1535 1537 1538 1539 1540 1542 1543 1544 1544 1545 1545 1545 1546 1546 1546 1547 1545 1545 1544 1544 1544 1544 1544
1516 1515 1515 1516 1517 1519 1520 1522 1523 1525 1527 1527 1528 1528 1528 1528 1530 1530 1531 1532 1533 1535 1536 1537 1538 1539 1541 1542 1543 1544 1544 1545 1546 1545 1545 1544 1544 1544 1544 1544 1543 1543 1543
1514 1513 1513 1513 1514 1515 1517 1518 1520 1521 1523 1525 1525 1525 1525 1526 1527 1528 1529 1530 1531 1532 1534 1535 1536 1537 1539 1541 1541 1541 1542 1544 1545 1545 1544 1543 1543 1543 1543 1543 1543 1543 1543
1512 1511 1510 1510 1511 1512 1514 1515 1517 1519 1520 1520 1522 1523 1523 1522 1523 1524 1526 1526 1527 1529 1530 1532 1532 1534 1535 1537 1540 1540 1540 1542 1542 1542 1542 1542 1541 1541 1542 1542 1542 1542 1541
1508 1508 1508 1507 1507 1508 1510 1512 1513 1515 1516 1517 1518 1519 1520 1518 1519 1520 1522 1524 1525 1526 1526 1528 1530 1531 1532 1534 1535 1535 1537 1538 1538 1539 1540 1539 1540 1540 1540 1540 1540 1540 1540
1502 1504 1504 1503 1503 1504 1505 1508 1509 1510 1512 1514 1515 1516 1516 1517 1517 1518 1518 1521 1522 1523 1523 1523 1524 1527 1529 1530 1531 1531 1532 1533 1534 1536 1537 1536 1537 1538 1539 1538 1538 1538 1539
1498 1498 1500 1500 1499 1500 1501 1503 1504 1506 1508 1509 1511 1513 1513 1514 1514 1515 1515 1515 1517 1519 1519 1519 1520 1523 1521 1525 1527 1527 1527 1528 1530 1531 1532 1533 1533 1534 1535 1535 1536 1536 1536
1492 1492 1492 1495 1495 1495 1496 1499 1500 1501 1502 1504 1506 1507 1509 1509 1510 1510 1510 1510 1511 1513 1515 1514 1514 1515 1516 1518 1519 1520 1522 1523 1524 1525 1526 1528 1529 1530 1531 1532 1532 1533 1533
1486 1485 1486 1488 1489 1489 1491 1493 1495 1496 1498 1499 1501 1502 1503 1505 1505 1505 1505 1504 1504 1505 1506 1507 1508 1508 1509 1510 1512 1514 1516 1518 1519 1521 1522 1523 1524 1524 1526 1528 1529 1530 1529
1480 1479 1479 1480 1482 1484 1486 1487 1489 1491 1492 1495 1495 1496 1497 1499 1500 1499 1498 1499 1498 1497 1498 1500 1501 1501 1501 1504 1505 1507 1508 1510 1512 1515 1515 1517 1519 1519 1521 1522 1524 1526 1526
1475 1473 1472 1473 1476 1479 1480 1482 1483 1485 1488 1489 1490 1491 1493 1494 1494 1493 1492 1492 1491 1491 1490 1491 1493 1494 1495 1496 1498 1499 1499 1502 1506 1506 1506 1509 1515 1514 1515 1517 1519 1519 1521
1468 1467 1467 1467 1470 1473 1474 1476 1478 1480 1483 1485 1485 1487 1488 1487 1487 1486 1485 1485 1484 1484 1484 1485 1486 1486 1488 1489 1492 1492 1493 1495 1496 1498 1499 1501 1505 1507 1509 1510 1512 1514 1514
1468 1465 1463 1463 1465 1468 1470 1472 1474 1475 1477 1478 1479 1480 1481 1481 1480 1479 1478 1477 1476 1476 1477 1477 1477 1478 1479 1480 1482 1485 1485 1489 1487 1490 1490 1492 1495 1498 1501 1502 1505 1508 1509
1467 1463 1460 1461 1462 1464 1466 1468 1469 1471 1472 1474 1475 1475 1475 1473 1472 1471 1470 1469 1468 1468 1467 1468 1469 1468 1470 1473 1470 1476 1477 1473 1481 1481 1481 1484 1490 1493 1492 1495 1498 1501 1503
1467 1463 1460 1459 1459 1461 1463 1464 1466 1466 1468 1469 1469 1469 1468 1467 1465 1463 1461 1459 1459 1459 1458 1458 1458 1458 1459 1458 1463 1464 1466 1470 1471 1474 1474 1477 1482 1485 1486 1488 1490 1493 1495
1467 1463 1461 1459 1458 1460 1460 1460 1462 1463 1463 1465 1465 1465 1463 1460 1457 1454 1452 1451 1450 1450 1449 1449 1449 1448 1450 1449 1452 1455 1458 1462 1463 1466 1468 1471 1474 1475 1480 1479 1482 1483 1484
1467 1463 1460 1459 1458 1460 1459 1458 1459 1459 1461 1461 1462 1461 1459 1456 1452 1447 1444 1443 1441 1441 1441 1441 1442 1442 1443 1443 1444 1446 1449 1449 1455 1459 1462 1464 1467 1475 1475 1475 1474 1475 1477